[[{"header":{"parameterUnit":"m.s-1","parameterCategory":1,"la1":30.2991,"la2":30.254,"lo1":-89.0895,"lo2":-89.0444,"dy":0.0017,"dx":0.0017,"nx":28,"ny":28,"refTime":"2024-07-26T03:00:00:Z","depth":0,"parameterNumber":2,"parameterNumberName":"U-component_of_WINDS"},"data":[0,0,0,0,0,0,0,0,0,0,0,0,0,0,0,0,0,0,0,0,0,0,0,0,0,0,0,0,0,0,0,0,0,0,0,0,0,0,0,0,0,0,0,0,0,0,0,0,0,0,0,0,0,0,0,0,0,0,-4.0876,-4.0876,0,-4.0849,-4.0849,-4.0849,-4.0745,-4.0742,-4.074,-4.0738,-4.0713,-4.0714,-4.0716,0,0,0,0,0,0,0,0,0,0,0,0,0,-4.084,-4.0841,-4.0876,-4.0876,-4.0875,-4.0849,-4.0849,-4.0849,-4.0745,-4.0742,-4.0739,-4.0737,-4.0712,-4.0714,-4.0716,0,0,0,0,0,0,0,0,0,0,0,0,0,-4.0839,-4.0842,-4.0876,-4.0821,-4.0815,-4.0849,-4.0849,-4.0848,-4.0746,-4.0742,-4.0739,-4.0735,-4.0712,-4.0714,-4.0716,-4.0802,0,0,-4.0723,-4.0724,0,0,0,0,0,0,0,0,-4.0839,-4.084,-4.0829,-4.0825,-4.0819,-4.0797,-4.0827,-4.0833,-4.0747,-4.0772,-4.0738,-4.0734,-4.0744,-4.0743,-4.0746,-4.0801,-4.08,-4.0724,-4.0725,-4.0726,-4.0727,0,0,0,0,0,0,0,-4.0839,-4.0841,-4.0865,-4.0829,-4.0823,-4.0798,-4.0794,-4.0828,-4.0779,-4.077,-4.0762,-4.076,-4.074,-4.0744,-4.0745,-4.08,-4.0723,-4.0726,-4.0727,-4.0728,-4.0923,-4.0927,0,0,0,0,0,0,-4.0847,-4.0842,-4.0866,-4.0865,-4.082,-4.0801,-4.0797,-4.0807,-4.0778,-4.077,-4.0763,-4.0756,-4.0742,-4.0742,-4.0743,-4.0841,-4.0726,-4.0728,-4.0729,-4.0919,-4.0924,-4.0928,0,0,0,0,0,0,-4.0847,-4.085,-4.0867,-4.0851,-4.0851,-4.0806,-4.0819,-4.0809,-4.0812,-4.0773,-4.0764,-4.0776,-4.0739,-4.074,-4.0788,-4.0839,-4.0729,-4.0731,-4.0915,-4.0921,-4.0926,-4.1038,0,0,0,0,0,0,-4.0846,-4.0851,-4.0882,-4.0853,-4.0853,-4.0912,-4.0822,-4.0811,-4.0816,-4.0806,-4.0783,-4.0775,-4.0736,-4.0785,-4.079,-4.084,-4.0733,-4.091,-4.0917,-4.0924,-4.103,-4.1047,-4.1062,0,0,0,0,0,-4.0845,-4.0916,-4.0884,-4.0888,-4.0891,-4.0915,-4.0915,-4.0868,-4.0821,-4.0853,-4.0827,-4.0776,-4.0833,-4.0791,-4.0796,-4.0847,-4.0907,-4.0915,-4.0924,-4.1022,-4.1043,-4.1061,0,0,0,0,0,0,-4.0954,-4.0911,-4.0876,-4.0939,-4.0931,-4.0898,-4.0936,-4.0892,-4.0899,-4.0889,-4.0831,-4.0827,-4.0883,-4.087,-4.0824,-4.0928,-4.0861,-4.0871,-4.0934,-4.0954,-4.097,-4.0971,-4.0735,0,0,0,0,0,-4.0985,-4.1007,-4.0969,-4.1028,-4.1026,-4.0982,-4.0991,-4.0955,-4.0946,-4.0942,-4.092,-4.0914,-4.0929,-4.0941,-4.0954,-4.1028,-4.1021,-4.1066,-4.1082,-4.1095,-4.1104,-4.1141,-4.116,-4.0956,-4.0956,-4.0956,0,0,-4.105,-4.1029,-4.1047,-4.1049,-4.1039,-4.1064,-4.098,-4.101,-4.1028,-4.0947,-4.099,-4.0974,-4.0963,-4.1024,-4.1049,-4.1015,-4.1159,-4.1106,-4.1117,-4.1118,-4.1152,-4.1171,-4.1188,-4.0962,-4.0961,-4.096,0,0,-4.118,-4.1167,-4.1214,-4.1206,-4.1191,-4.1161,-4.1173,-4.1146,-4.1132,-4.1174,-4.1114,-4.1135,-4.1164,-4.1158,-4.1159,-4.1288,-4.124,-4.1294,-4.1377,-4.1414,-4.143,-4.1444,-4.1488,-4.1505,-4.1303,-4.1303,-4.1303,0,-4.1262,-4.1296,-4.1244,-4.1278,-4.128,-4.1208,-4.1255,-4.125,-4.1241,-4.1245,-4.1207,-4.1241,-4.1229,-4.1286,-4.1318,-4.1321,-4.1333,-4.1295,-4.1431,-4.1445,-4.1457,-4.1499,-4.1516,-4.131,-4.1309,-4.1308,-4.1308,0,-4.1397,-4.1422,-4.1462,-4.1454,-4.1462,-4.1502,-4.1457,-4.1471,-4.1436,-4.141,-4.1454,-4.1437,-4.1444,-4.1456,-4.1422,-4.1509,-4.1488,-4.1442,-4.1372,-4.1484,-4.1522,-4.1538,-4.1319,-4.1317,-4.1315,-4.1313,0,0,-4.1594,-4.1556,-4.1572,-4.1567,-4.1546,-4.1564,-4.1602,-4.1608,-4.1621,-4.1618,-4.1648,-4.1675,-4.1631,-4.1632,-4.1597,-4.163,-4.1731,-4.1579,-4.1578,-4.1607,-4.1825,-4.1859,-4.1879,-4.1701,-4.1704,-4.1706,-4.1826,0,-4.1716,-4.1777,-4.1731,-4.18,-4.1822,-4.1754,-4.1786,-4.1778,-4.1755,-4.1771,-4.1747,-4.1766,-4.1708,-4.1708,-4.1737,-4.1713,-4.1774,-4.1704,-4.1727,-4.1729,-4.173,-4.1899,-4.1935,-4.2049,-4.1841,-4.1843,-4.1845,0,-4.1867,-4.1869,-4.194,-4.1913,-4.1921,-4.1951,-4.1953,-4.1969,-4.1958,-4.1939,-4.1941,-4.1897,-4.1932,-4.1866,-4.1914,-4.1867,-4.1875,-4.1864,-4.1867,-4.1866,-4.1792,-4.1901,-4.2084,-4.2101,-4.1868,-4.1867,-4.1865,0,-4.2001,-4.2022,-4.2066,-4.2065,-4.2036,-4.2058,-4.2048,-4.2033,-4.2039,-4.2042,-4.2045,-4.2053,-4.2056,-4.2063,-4.2023,-4.1978,-4.2076,-4.2006,-4.2061,-4.2062,-4.2083,-4.2082,-4.2268,-4.2092,-4.2091,-4.2091,-4.2091,0,-4.2142,-4.2187,-4.2126,-4.2154,-4.2203,-4.2151,-4.2201,-4.2183,-4.2171,-4.2194,-4.2136,-4.216,-4.2105,-4.2123,-4.2092,-4.2136,-4.2139,-4.2125,-4.2115,-4.2129,-4.213,-4.2131,-4.2122,-4.2095,-4.2094,-4.2094,-4.2093,0,-4.2299,-4.226,-4.2304,-4.2273,-4.2266,-4.2303,-4.2277,-4.2301,-4.2275,-4.2305,-4.2309,-4.2269,-4.2287,-4.2248,-4.2261,-4.2239,-4.2301,-4.2281,-4.2305,-4.2298,-4.2354,-4.2349,-4.2546,-4.2569,-4.238,-4.2382,-4.2383,0,-4.239,-4.2423,-4.2396,-4.2406,-4.2398,-4.2416,-4.2422,-4.2373,-4.2382,-4.2372,-4.2398,-4.2411,-4.2418,-4.245,-4.2422,-4.2432,-4.241,-4.2478,-4.2411,-4.2423,-4.2409,-4.2406,-4.2409,-4.2492,-4.2494,-4.2496,-4.2498,0,-4.2556,-4.2535,-4.2545,-4.2549,-4.2558,-4.2559,-4.2556,-4.2568,-4.2516,-4.2529,-4.2546,-4.2552,-4.2564,-4.2578,-4.2581,-4.257,-4.2526,-4.2519,-4.2532,-4.2545,-4.2557,-4.2549,-4.2341,-4.2515,-4.2513,-4.2512,-4.2511,-4.251,-4.2681,-4.2707,-4.2691,-4.2705,-4.2697,-4.2696,-4.2716,-4.2693,-4.2706,-4.2711,-4.2682,-4.2705,-4.2693,-4.2693,-4.2687,-4.2705,-4.2674,-4.2693,-4.2698,-4.2703,-4.2711,-4.2556,-4.2706,-4.2705,-4.2705,-4.2704,-4.2704,0,-4.2842,-4.2828,-4.2841,-4.2838,-4.2849,-4.2806,-4.28,-4.2812,-4.2833,-4.2825,-4.2833,-4.2853,-4.2866,-4.284,-4.2848,-4.2868,-4.2847,-4.2872,-4.2869,-4.2867,-4.2739,-4.2726,-4.2888,-4.2888,-4.2888,-4.2888,-4.2888,-4.2888,-4.2927,-4.2968,-4.2945,-4.2982,-4.2968,-4.2989,-4.299,-4.2988,-4.2981,-4.3005,-4.3015,-4.2998,-4.2983,-4.299,-4.3,-4.2992,-4.2997,-4.3028,-4.3013,-4.2894,-4.2876,-4.2859,-4.2846,-4.303,-4.3031,-4.3139,-4.314,-4.3141]},{"header":{"parameterUnit":"m.s-1","parameterCategory":1,"la1":30.2991,"la2":30.254,"lo1":-89.0895,"lo2":-89.0444,"dy":0.0017,"dx":0.0017,"nx":28,"ny":28,"refTime":"2024-07-26T03:00:00:Z","depth":0,"parameterNumber":3,"parameterNumberName":"V-component_of_WINDS"},"data":[0,0,0,0,0,0,0,0,0,0,0,0,0,0,0,0,0,0,0,0,0,0,0,0,0,0,0,0,0,0,0,0,0,0,0,0,0,0,0,0,0,0,0,0,0,0,0,0,0,0,0,0,0,0,0,0,0,0,0.872,0.8722,0,0.888,0.8882,0.8884,0.8963,0.8963,0.8963,0.8963,0.9124,0.9128,0.9132,0,0,0,0,0,0,0,0,0,0,0,0,0,0.8481,0.8485,0.872,0.8722,0.8724,0.888,0.8882,0.8884,0.8963,0.8963,0.8963,0.8963,0.9122,0.9127,0.9132,0,0,0,0,0,0,0,0,0,0,0,0,0,0.8607,0.8486,0.872,0.8782,0.8789,0.8879,0.8882,0.8885,0.8963,0.8963,0.8963,0.8963,0.9121,0.9127,0.9133,0.9172,0,0,0.9153,0.9155,0,0,0,0,0,0,0,0,0.86,0.8616,0.8771,0.8778,0.8786,0.8902,0.8857,0.8981,0.8963,0.8897,0.8963,0.8963,0.905,0.9062,0.9092,0.9179,0.9186,0.9153,0.9157,0.916,0.9162,0,0,0,0,0,0,0,0.8591,0.8609,0.8783,0.8773,0.8782,0.8802,0.882,0.8881,0.8971,0.8903,0.8909,0.8927,0.9054,0.9085,0.9096,0.9189,0.9153,0.9159,0.9163,0.9165,0.9318,0.9319,0,0,0,0,0,0,0.8572,0.8602,0.8778,0.8788,0.8691,0.8806,0.8826,0.8865,0.8971,0.8987,0.8927,0.893,0.9074,0.9088,0.9102,0.9156,0.916,0.9166,0.9169,0.9318,0.9318,0.9319,0,0,0,0,0,0,0.8567,0.8587,0.8772,0.8697,0.8722,0.881,0.8853,0.8868,0.8899,0.8989,0.9005,0.8943,0.9075,0.9093,0.9155,0.9163,0.9169,0.9174,0.9318,0.9318,0.9319,0.9263,0,0,0,0,0,0,0.856,0.8585,0.8601,0.8696,0.8725,0.8822,0.8853,0.8871,0.8911,0.8916,0.9008,0.9023,0.9076,0.9145,0.9161,0.9171,0.9179,0.9317,0.9318,0.9318,0.9264,0.9261,0.9259,0,0,0,0,0,0.8551,0.8578,0.8601,0.8622,0.8747,0.8822,0.8839,0.8901,0.8911,0.8928,0.8985,0.902,0.9159,0.915,0.9169,0.9182,0.9317,0.9318,0.9318,0.9266,0.9262,0.9259,0,0,0,0,0,0,0.8479,0.8591,0.8619,0.8677,0.874,0.8836,0.8859,0.8894,0.8954,0.8957,0.903,0.905,0.9105,0.915,0.9138,0.9226,0.9242,0.9246,0.9195,0.9192,0.9189,0.9178,0.9185,0,0,0,0,0,0.8471,0.8523,0.8618,0.866,0.8691,0.8769,0.8804,0.8846,0.8914,0.894,0.9002,0.9065,0.9124,0.916,0.9218,0.9271,0.9293,0.9289,0.9286,0.9283,0.9286,0.9319,0.9319,0.932,0.932,0.932,0,0,0.8453,0.852,0.8549,0.8648,0.8701,0.8754,0.8791,0.8844,0.8884,0.8948,0.9011,0.9058,0.9134,0.9192,0.922,0.923,0.9291,0.9284,0.9281,0.9286,0.932,0.932,0.9319,0.9321,0.9321,0.9321,0,0,0.8447,0.8503,0.8546,0.8599,0.868,0.8733,0.8743,0.8834,0.8868,0.8933,0.8983,0.903,0.9129,0.9181,0.922,0.9236,0.9271,0.9253,0.9238,0.9269,0.9269,0.9269,0.9276,0.9277,0.9256,0.9256,0.9255,0,0.8414,0.8496,0.8562,0.8614,0.8657,0.8719,0.8763,0.8811,0.8906,0.8934,0.8944,0.907,0.9125,0.9197,0.9201,0.923,0.9245,0.9243,0.9264,0.9265,0.9266,0.9273,0.9276,0.9253,0.9253,0.9253,0.9254,0,0.8452,0.8508,0.8533,0.8625,0.867,0.8717,0.8791,0.8829,0.8867,0.8918,0.8984,0.9052,0.9126,0.9146,0.9184,0.9224,0.9228,0.925,0.9267,0.9262,0.927,0.9274,0.9249,0.925,0.9251,0.9252,0,0,0.8405,0.8535,0.8543,0.8587,0.8682,0.8726,0.8776,0.885,0.8882,0.8945,0.899,0.9072,0.9094,0.9139,0.9183,0.921,0.922,0.9229,0.9232,0.9226,0.927,0.9253,0.9255,0.9243,0.9244,0.9245,0.9264,0,0.8413,0.8508,0.857,0.8639,0.8693,0.8753,0.8797,0.886,0.8909,0.8961,0.9015,0.9073,0.9097,0.9125,0.9154,0.9212,0.923,0.9212,0.9285,0.9287,0.9265,0.9259,0.9242,0.9256,0.9267,0.9268,0.9268,0,0.8436,0.85,0.8575,0.8666,0.8691,0.8729,0.8803,0.8852,0.8925,0.8959,0.9009,0.9055,0.911,0.9123,0.92,0.9187,0.9221,0.9254,0.9256,0.9266,0.9278,0.927,0.9262,0.9265,0.9274,0.9273,0.9273,0,0.8395,0.85,0.856,0.8595,0.8702,0.8728,0.8773,0.8846,0.8887,0.8951,0.8979,0.9048,0.9086,0.9138,0.92,0.9203,0.9272,0.9289,0.9302,0.9301,0.9314,0.9313,0.9313,0.9334,0.9334,0.9334,0.9334,0,0.8399,0.8442,0.8543,0.8579,0.8631,0.8702,0.875,0.8801,0.8866,0.8913,0.8969,0.9011,0.9092,0.9144,0.9193,0.9251,0.9267,0.9296,0.9309,0.9292,0.9288,0.9316,0.9316,0.9335,0.9335,0.9335,0.9335,0,0.8362,0.8431,0.85,0.8597,0.8622,0.8655,0.8738,0.8776,0.8829,0.8888,0.8906,0.8988,0.9053,0.9121,0.9209,0.9242,0.9298,0.9315,0.9274,0.9281,0.9291,0.9289,0.931,0.9316,0.9331,0.9331,0.9331,0,0.836,0.8395,0.8496,0.8533,0.8578,0.8635,0.8678,0.875,0.8792,0.8878,0.8906,0.8975,0.9035,0.9136,0.9203,0.9271,0.9291,0.9293,0.9301,0.9283,0.9292,0.929,0.9294,0.929,0.929,0.9289,0.9289,0,0.8349,0.8382,0.8442,0.8515,0.8565,0.8625,0.8688,0.8714,0.8798,0.8842,0.891,0.8957,0.9048,0.9116,0.9192,0.9239,0.9278,0.9286,0.9293,0.9276,0.9251,0.9266,0.9267,0.9285,0.9286,0.9286,0.9286,0.9286,0.8331,0.8366,0.8443,0.8509,0.8564,0.8621,0.8662,0.8721,0.8779,0.886,0.8898,0.8967,0.904,0.9147,0.9192,0.9247,0.9258,0.9267,0.927,0.9271,0.9268,0.9242,0.926,0.9261,0.9261,0.9261,0.9261,0,0.8324,0.8377,0.8437,0.8524,0.8575,0.8609,0.868,0.8721,0.8781,0.8847,0.8905,0.8984,0.9051,0.9125,0.9196,0.9226,0.9246,0.9242,0.9241,0.9252,0.9253,0.9241,0.9225,0.9225,0.9225,0.9225,0.9225,0.9225,0.8327,0.8389,0.8431,0.8521,0.8574,0.8643,0.8681,0.8734,0.8787,0.8873,0.893,0.8978,0.9047,0.9125,0.9188,0.9208,0.9232,0.9223,0.9248,0.9248,0.9251,0.9254,0.9243,0.9228,0.9228,0.9243,0.9243,0.9243]}]]